Theta_e
312 312 312 312 313 312 312 313 313 311 310 310 311 311 310 310 310 312 313 311 311 310 312 317 319 320 320 321 321 322 324 327 329 332 333 335 333 333 333 330 329 334 355 357 352
311 311 311 311 311 312 312 312 313 312 311 311 310 311 309 310 311 312 312 311 310 312 312 316 319 319 321 322 322 322 325 326 328 329 331 333 331 331 331 329 329 330 346 355 352
311 310 311 311 311 311 311 312 312 313 311 311 311 310 310 310 313 315 314 311 310 311 312 313 316 319 320 323 323 323 323 325 328 325 330 332 327 330 328 330 330 333 339 340 352
310 310 310 310 311 310 310 311 312 312 312 311 310 310 310 312 320 313 310 312 311 312 310 312 316 318 320 322 324 324 324 324 327 324 324 324 325 329 330 328 328 328 328 333 343
310 310 310 310 310 310 310 310 310 311 311 310 310 310 312 315 314 313 311 311 314 312 311 312 316 317 319 321 323 324 324 325 327 326 326 327 327 329 329 328 328 327 326 326 334
310 310 310 310 310 310 310 310 310 311 311 310 310 310 312 315 314 314 313 319 317 314 311 312 315 317 318 320 322 324 325 326 328 329 328 329 330 330 330 329 327 328 327 327 328
309 308 309 310 310 310 310 310 310 310 311 310 310 311 315 316 314 312 316 319 320 317 312 312 315 316 318 319 321 323 325 329 331 332 331 331 332 332 330 329 327 328 327 328 328
308 309 309 309 309 309 309 310 309 309 310 310 310 312 317 314 314 314 314 314 319 316 312 312 314 317 317 319 320 322 328 333 330 331 331 332 335 331 330 330 329 328 328 328 329
309 309 309 309 309 309 309 309 309 311 312 310 311 313 318 317 315 315 314 315 317 314 312 313 315 317 317 317 320 322 331 336 335 330 331 332 333 330 330 332 331 329 326 328 330
309 308 309 308 308 308 308 309 311 311 311 312 313 316 316 318 316 315 315 319 316 315 314 315 316 317 317 317 321 323 330 333 337 330 331 330 329 330 333 332 328 327 326 328 329
308 308 308 308 308 307 308 311 315 316 313 318 319 317 317 316 315 316 319 320 316 315 315 316 315 317 317 316 317 326 328 331 331 326 326 325 328 329 332 329 327 327 326 328 329
308 308 307 308 308 307 308 312 315 314 319 318 319 318 317 318 316 317 318 320 316 316 316 315 314 315 316 316 317 321 325 323 323 328 322 322 322 321 323 325 330 326 326 327 328
307 307 307 308 307 308 309 311 312 313 319 320 321 320 319 319 317 320 318 319 316 316 315 314 315 316 316 316 319 319 319 321 320 320 320 321 322 322 321 321 328 328 325 327 329
307 307 307 307 308 315 316 316 314 314 323 322 322 319 319 319 319 318 317 316 315 314 314 315 315 315 316 317 318 319 318 319 320 321 321 321 322 324 323 322 327 328 326 327 328
306 306 307 307 308 310 315 318 317 315 331 319 321 318 318 319 320 318 315 316 315 315 315 315 316 315 316 317 318 318 319 319 320 320 321 321 320 321 324 322 322 324 325 327 329
306 306 307 308 309 311 314 317 315 325 328 322 320 318 319 318 319 318 315 316 316 315 316 316 317 316 316 317 317 318 320 320 320 321 323 322 321 320 323 324 323 323 328 328 328
305 305 306 308 312 316 315 316 323 332 322 319 318 318 318 319 320 318 316 316 317 316 316 316 317 317 317 317 318 319 323 323 321 321 321 322 322 324 324 324 323 324 328 328 326
304 306 308 309 309 313 316 318 330 321 328 324 318 319 318 317 320 319 317 316 318 316 316 317 320 317 319 319 319 320 322 322 323 323 320 321 323 324 325 324 325 328 327 327 328
306 310 317 316 314 315 317 323 326 327 327 329 324 319 320 318 320 319 317 318 318 318 320 318 321 319 319 320 320 320 321 321 324 324 327 324 328 327 327 328 329 328 329 329 330
308 311 315 317 317 315 321 323 324 323 324 323 329 319 322 319 320 319 317 319 320 321 322 321 320 320 319 319 320 321 320 321 324 331 334 328 330 329 328 328 329 328 330 329 329
310 317 320 317 317 321 324 323 323 323 323 325 326 329 322 319 320 319 319 318 319 320 321 323 324 323 321 320 320 322 325 326 325 325 332 335 336 330 330 328 329 329 327 327 326
311 316 321 318 326 323 325 322 319 324 323 323 324 326 329 327 322 320 320 319 319 320 320 324 328 326 323 322 321 321 322 328 332 328 328 335 335 333 330 329 329 327 326 326 325
312 312 321 319 325 325 323 323 323 323 322 324 324 324 327 330 326 321 321 322 320 320 321 325 330 334 327 327 324 322 325 324 326 331 330 334 336 330 329 330 329 328 326 325 324
313 317 324 323 323 324 324 324 326 322 322 323 324 324 326 330 329 324 325 322 320 323 328 326 327 332 335 331 327 325 326 326 328 337 330 329 333 331 328 329 329 327 325 323 324
315 319 318 316 320 323 321 320 325 322 321 322 324 324 327 330 330 328 325 324 322 323 323 325 325 328 330 330 328 327 324 323 324 326 330 328 329 327 328 328 323 321 319 319 320
312 314 311 313 317 321 319 318 322 321 320 323 323 323 324 329 329 331 326 324 324 323 324 325 330 330 329 326 323 325 325 325 324 325 326 327 328 326 326 319 318 319 320 320 320
305 308 311 312 315 321 322 319 323 321 322 323 323 325 329 327 326 327 326 326 324 323 326 330 329 331 333 328 323 323 322 321 319 320 320 320 319 319 320 320 320 321 321 320 320
Wind_Speed
17 18 17 16 15 15 15 15 14 12 10 10 11 12 13 14 16 16 22 17 16 24 9 13 24 20 21 16 17 20 14 16 22 20 24 15 22 1 12 6 5 8 14 10 11
17 18 16 16 17 16 15 16 14 13 11 11 11 11 12 12 15 26 25 23 21 12 13 15 20 23 16 19 16 15 13 21 17 15 14 7 24 10 11 7 9 12 7 27 40
17 18 17 16 17 16 15 14 15 14 12 12 12 13 11 8 15 19 21 34 28 22 16 18 22 23 24 19 21 20 16 18 14 10 2 8 20 20 1 9 5 4 14 15 10
18 18 17 18 17 16 16 14 14 14 13 13 12 13 11 10 4 7 7 23 30 21 19 21 20 25 25 26 23 23 22 21 20 4 4 3 12 17 18 10 11 11 6 4 12
20 18 18 17 18 17 15 16 15 14 12 13 12 13 10 10 15 9 3 16 25 24 24 22 21 24 26 25 24 26 24 23 21 8 3 5 10 10 22 21 16 13 13 10 15
19 18 19 18 17 17 17 15 16 15 13 13 12 10 12 18 16 20 14 21 17 25 27 26 21 22 24 25 26 23 23 23 22 15 10 10 12 12 19 21 24 14 11 16 11
20 20 18 18 18 17 17 16 16 16 14 13 11 10 16 22 16 6 12 18 17 26 23 29 29 21 23 26 24 24 24 14 13 12 7 13 20 21 17 17 21 17 16 15 13
20 20 19 18 18 17 17 16 16 18 17 13 9 11 10 17 22 22 11 14 13 23 29 26 29 23 23 22 24 26 14 17 24 20 14 9 16 20 18 19 16 16 20 22 15
22 20 22 19 18 17 15 16 14 15 11 8 8 13 10 6 16 23 24 17 15 20 25 25 22 24 23 23 20 21 13 12 26 21 16 15 13 21 24 24 12 15 17 21 14
23 23 22 21 18 15 15 15 10 1 4 7 15 6 12 14 19 22 21 17 17 18 20 21 16 20 21 19 18 25 21 23 33 23 19 15 18 17 18 18 11 14 19 13 13
22 24 25 24 18 15 16 11 4 5 11 11 14 10 7 23 18 21 20 16 18 18 18 22 17 22 27 24 25 24 21 25 23 15 20 19 16 13 14 13 16 13 13 14 11
22 24 26 23 21 18 12 7 18 6 12 26 26 24 27 7 14 18 23 16 22 20 21 17 20 24 22 26 27 28 26 23 20 20 18 15 14 13 17 14 20 14 8 11 16
23 26 26 21 24 22 22 25 21 17 9 16 28 24 17 12 18 19 21 19 26 24 24 17 20 21 25 28 26 23 25 22 14 12 14 9 14 13 13 18 19 13 12 10 5
24 27 24 24 15 10 14 13 16 6 6 15 25 17 23 15 15 22 25 18 17 24 24 20 22 25 23 21 20 22 24 22 20 16 12 17 13 18 16 18 19 22 18 15 11
28 30 25 16 16 12 12 1 12 6 4 15 25 14 19 23 15 23 30 20 21 19 19 21 21 24 20 23 22 22 23 11 15 13 16 20 14 10 20 16 17 11 11 12 12
34 31 29 18 19 18 9 6 9 6 7 5 17 20 24 22 20 24 24 20 18 18 21 22 17 21 23 21 21 21 14 16 17 11 12 19 15 14 17 21 20 15 9 8 8
38 44 28 17 13 14 11 8 4 6 7 16 23 26 25 21 23 24 25 22 17 18 16 18 21 19 18 19 15 15 11 8 9 10 13 18 16 14 12 23 22 19 12 7 3
50 38 22 21 23 13 14 4 8 13 4 10 16 23 23 24 23 23 23 21 23 21 15 16 13 22 15 16 21 22 18 11 17 11 16 18 17 15 12 20 19 18 15 13 10
40 20 12 15 18 17 5 5 3 6 7 10 12 23 19 21 18 21 22 23 22 22 17 17 12 18 17 18 16 19 18 20 11 14 10 11 13 13 19 19 21 18 15 15 8
25 19 20 22 22 21 4 5 6 2 9 7 9 18 23 25 22 25 22 23 22 21 19 9 9 18 15 13 17 17 13 16 9 16 4 4 14 11 18 19 20 18 14 9 7
12 6 3 26 27 5 5 7 5 1 3 4 12 10 17 23 23 22 23 20 24 22 17 11 10 14 13 13 19 10 13 13 14 11 10 4 5 8 16 15 15 16 15 12 7
8 7 16 21 8 6 12 15 5 5 11 8 8 14 12 20 18 20 22 21 25 20 20 12 6 13 16 16 16 16 14 11 7 12 7 5 8 3 4 10 9 14 14 12 7
7 9 14 22 6 12 16 18 8 11 7 6 7 9 10 10 9 17 17 8 21 12 12 12 1 8 7 9 15 10 13 11 12 4 9 6 1 9 11 15 10 9 7 6 9
5 4 2 4 12 15 8 4 5 12 11 7 5 14 11 9 11 14 8 8 2 11 8 5 3 9 7 6 9 16 16 8 5 2 6 11 15 18 6 12 9 8 8 5 9
4 4 4 1 7 10 5 6 16 6 9 12 6 14 12 5 17 9 12 10 8 4 3 3 4 2 3 5 8 8 10 12 10 6 9 13 7 9 6 8 2 3 3 6 8
6 5 7 14 16 10 3 5 19 6 3 6 7 7 12 16 11 17 12 14 12 6 7 4 3 6 1 6 1 4 7 10 10 10 6 10 14 21 17 6 3 2 4 1 6
19 17 6 9 12 8 3 4 8 6 11 9 10 10 11 6 10 10 18 14 11 13 9 6 4 3 3 10 8 11 14 11 10 9 11 10 1 7 9 4 2 3 1 3 4
Wind_Direction
338 335 332 327 320 313 311 308 310 317 310 303 302 295 279 276 284 274 251 229 221 242 271 219 220 225 233 246 246 257 242 242 246 230 256 360 314 163 250 339 323 313 84 95 30
338 333 329 328 325 314 307 304 306 308 310 305 298 290 290 278 281 269 242 235 228 237 218 221 218 215 226 230 232 239 239 238 243 274 235 330 297 287 224 230 248 268 91 131 118
335 330 325 324 323 320 307 300 301 301 306 302 299 291 274 275 270 247 245 226 223 229 217 224 227 210 219 221 226 219 243 246 247 27 46 191 304 329 288 244 226 60 33 10 192
337 327 325 324 321 321 318 303 297 296 297 303 296 287 277 257 254 82 81 207 212 213 219 224 226 228 213 220 221 225 220 251 268 82 17 300 334 319 325 262 6 356 11 64 326
331 325 322 323 319 316 315 307 297 292 293 299 295 286 277 233 243 238 90 162 197 202 210 211 220 219 222 217 221 230 226 230 250 146 231 319 295 305 301 323 339 321 326 312 151
327 324 322 319 316 313 310 307 298 292 289 294 292 277 254 261 253 230 210 161 181 195 207 215 212 214 228 225 222 223 234 228 236 264 206 261 288 301 285 313 314 284 285 285 281
325 324 320 319 315 311 308 305 299 291 284 287 279 253 261 248 259 218 215 201 206 200 202 210 224 216 219 228 227 230 233 224 236 265 226 264 266 250 269 284 291 331 299 287 277
332 332 325 322 318 313 307 302 299 291 279 268 261 250 256 253 246 260 237 251 204 203 211 206 218 237 224 233 220 227 205 254 220 202 235 173 254 274 267 250 274 286 296 290 264
335 331 329 323 316 312 307 302 303 301 274 218 219 224 260 220 226 225 223 219 177 189 207 209 211 229 223 222 220 214 227 198 272 219 185 181 230 257 251 242 252 264 280 272 263
328 332 327 322 315 307 301 297 279 271 155 191 251 229 251 230 201 209 202 201 172 185 196 210 206 218 225 213 219 206 189 243 223 211 200 185 235 250 260 235 231 256 289 277 307
324 327 329 322 312 305 306 274 210 209 216 221 193 226 182 217 172 193 180 183 177 190 191 197 206 208 216 224 228 214 206 222 235 193 185 211 223 235 227 222 213 248 272 273 272
321 322 327 321 309 299 278 244 234 357 278 224 249 239 273 195 174 186 176 177 180 190 196 191 213 210 212 221 223 215 215 227 232 187 198 199 231 240 254 220 218 217 274 258 265
321 317 322 319 310 290 244 242 266 291 284 277 209 228 222 239 188 179 189 186 181 189 200 195 200 219 211 225 215 222 235 236 235 175 184 215 234 234 229 250 219 218 251 274 183
314 316 323 324 301 276 272 259 234 244 275 240 182 216 229 200 228 173 195 180 194 194 194 207 207 214 210 222 218 219 228 241 213 191 218 198 243 208 212 219 204 221 199 179 200
317 319 316 311 285 284 275 313 179 162 256 186 174 185 200 196 175 172 196 193 197 191 192 213 208 198 217 213 209 231 219 221 241 216 212 207 219 240 188 209 212 219 210 185 153
320 317 313 299 235 246 286 134 135 230 236 193 160 180 186 198 197 168 199 215 211 208 199 216 216 211 203 217 223 228 233 195 234 230 211 239 204 235 193 197 200 210 139 93 108
327 318 296 256 246 233 185 147 208 246 155 156 169 169 185 191 197 171 193 206 207 198 200 217 214 218 193 213 203 216 210 208 202 227 239 227 212 235 188 182 191 185 133 128 155
330 318 283 226 236 229 156 188 241 223 311 292 185 180 186 187 196 174 189 200 214 207 190 207 215 188 189 208 200 201 207 217 199 211 229 232 215 230 136 179 154 134 146 166 152
333 318 238 201 189 162 155 227 240 341 337 332 243 190 189 194 180 176 196 205 203 205 221 206 206 185 192 219 216 191 220 236 305 295 254 234 99 100 124 128 142 147 146 159 148
319 299 268 167 170 165 197 259 258 344 342 334 295 192 204 186 205 181 196 206 203 215 225 239 213 193 176 210 232 227 210 228 216 253 346 222 155 167 164 157 151 154 153 130 147
295 271 127 163 164 185 223 233 232 83 236 284 295 282 233 192 196 181 190 200 217 212 219 220 255 204 173 197 218 189 232 254 244 246 230 158 330 295 166 166 167 150 149 144 166
300 278 154 179 196 221 239 239 199 206 193 241 276 275 292 283 209 180 200 208 202 206 212 158 318 167 203 189 230 236 226 233 244 253 306 77 132 79 84 127 158 162 155 151 132
302 287 173 196 227 233 242 251 185 193 198 189 258 236 311 283 226 210 206 332 204 187 212 140 342 187 176 316 229 233 235 253 223 346 256 251 270 283 164 155 160 226 116 184 170
286 290 167 250 245 263 318 250 260 193 218 180 241 251 278 258 259 225 126 191 269 110 44 77 173 174 203 187 237 213 238 227 123 119 267 251 152 191 143 135 164 200 185 220 148
251 306 14 332 313 296 346 346 248 237 214 189 212 229 238 255 227 168 176 168 215 54 94 122 206 175 138 81 288 265 243 235 239 267 196 256 2 331 80 288 122 77 354 321 317
345 335 336 299 276 276 167 158 291 193 251 199 238 291 225 235 212 173 168 170 172 157 164 129 147 71 98 224 243 154 214 248 254 237 315 284 266 179 192 101 65 230 158 274 278
332 324 325 292 303 312 341 293 279 200 217 225 213 252 247 248 300 300 155 193 181 166 172 120 94 74 279 281 231 227 228 223 229 233 215 227 262 87 89 103 175 219 214 218 236